Home   Weather   Fairfield Acres   Past weeks
Flag for USA

Past Weather in Fairfield Acres, Tennessee, USA — Yesterday and Last 2 Weeks

Now
68 °F

Low clouds.


Feels Like: 68 °F
Forecast: 82 / 65 °F
Wind: No wind

Location: Bell County Airport

Current Time: Aug 7, 2020 at 6:26:44 am

Latest Report: Aug 7, 2020 at 5:55 am


Visibility: 10 mi

Pressure: 30.09 "Hg

Humidity: 100%

Dew Point: 68 °F

Location of Fairfield AcresLocation

Past Weather in Fairfield Acres — Graph

°F

Fairfield Acres Temperature Yesterday

Maximum temperature yesterday: 84 °F (at 5:35 pm)
Minimum temperature yesterday: 66 °F (at 7:15 am)
Average temperature yesterday: 74 °F

High & Low Weather Summary for the Past Weeks

 TemperatureHumidityPressure
High90 °F (Jul 27, 5:55 pm)100% (Jul 23, 5:15 am)30.24 "Hg (Jul 23, 5:15 am)
Low62 °F (Aug 4, 6:35 am)49% (Aug 2, 5:15 pm)29.84 "Hg (Jul 31, 3:35 am)
Average75 °F86%30.06 "Hg
* Reported Jul 23 5:15 am — Aug 7 5:15 am, Fairfield Acres. Weather by CustomWeather, © 2020

Note: Actual official high and low records may vary slightly from our data, if they occured in-between our weather recording intervals... More about our weather records

Fairfield Acres Weather History for the Previous 24 Hours

Scroll right to see more
 ConditionsComfort  
Time TempWeatherWind HumidityBarometerVisibility
5:15 am
Fri, Aug 7
68 °FLow clouds.No wind100%30.09 "Hg10 mi
4:55 am69 °FLow clouds.No wind100%30.09 "Hg10 mi
4:35 am68 °FLow clouds.No wind100%30.09 "Hg7 mi
4:15 am68 °FLow clouds.No wind100%30.09 "Hg7 mi
3:35 am69 °FPassing clouds.No wind100%30.09 "Hg7 mi
3:15 am69 °FPassing clouds.No wind100%30.09 "Hg7 mi
2:55 am69 °FPassing clouds.No wind100%30.09 "Hg7 mi
2:35 am69 °FPartly cloudy.No wind100%30.09 "Hg7 mi
2:15 am69 °FMostly cloudy.No wind100%30.09 "Hg10 mi
1:55 am69 °FPassing clouds.No wind100%30.08 "Hg10 mi
1:35 am69 °FClear.No wind100%30.08 "Hg10 mi
1:15 am70 °FPassing clouds.No wind100%30.08 "Hg10 mi
12:55 am70 °FOvercast.No wind100%30.09 "Hg10 mi
12:35 am71 °FPartly cloudy.No wind99%30.09 "Hg10 mi
12:15 am70 °FOvercast.No wind100%30.09 "Hg10 mi
11:55 pm
Thu, Aug 6
70 °FPassing clouds.3 mph100%30.09 "Hg10 mi
11:35 pm71 °FPassing clouds.No wind100%30.08 "Hg10 mi
11:15 pm71 °FPassing clouds.3 mph99%30.08 "Hg10 mi
10:55 pm72 °FPassing clouds.No wind99%30.07 "Hg10 mi
10:35 pm72 °FMostly cloudy.No wind98%30.07 "Hg10 mi
10:15 pm73 °FMostly cloudy.5 mph96%30.07 "Hg10 mi
9:55 pm73 °FPartly cloudy.No wind95%30.07 "Hg10 mi
9:15 pm76 °FClear.No wind82%30.06 "Hg10 mi
8:55 pm76 °FClear.No wind83%30.05 "Hg10 mi
7:55 pm81 °FScattered clouds.No wind70%30.03 "Hg10 mi
7:35 pm82 °FBroken clouds.No wind69%30.04 "Hg10 mi
7:15 pm81 °FScattered clouds.3 mph77%30.03 "Hg10 mi
6:55 pm81 °FScattered clouds.3 mph74%30.03 "Hg10 mi
6:35 pm82 °FScattered clouds.No wind67%30.02 "Hg10 mi
6:15 pm83 °FBroken clouds.5 mph64%30.02 "Hg10 mi
5:55 pm82 °FPartly sunny.3 mph67%30.02 "Hg10 mi
5:35 pm84 °FSunny.5 mph61%30.02 "Hg10 mi
5:15 pm83 °FScattered clouds.No wind64%30.02 "Hg10 mi
4:55 pm83 °FSunny.3 mph66%30.02 "Hg10 mi
4:35 pm83 °FSunny.No wind64%30.02 "Hg10 mi
4:15 pm82 °FSunny.No wind65%30.03 "Hg10 mi
3:55 pm81 °FScattered clouds.No wind67%30.05 "Hg10 mi
3:35 pm81 °FBroken clouds.3 mph69%30.06 "Hg10 mi
2:55 pm79 °FBroken clouds.No wind72%30.07 "Hg10 mi
2:35 pm78 °FCloudy.No wind79%30.08 "Hg10 mi
2:15 pm77 °FCloudy.No wind81%30.08 "Hg10 mi
1:55 pm77 °FMore clouds than sun.No wind80%30.08 "Hg10 mi
1:35 pm77 °FLight rain. Cloudy.No wind79%30.09 "Hg10 mi
1:15 pm78 °FMostly cloudy.No wind76%30.09 "Hg10 mi
12:55 pm77 °FScattered clouds.3 mph79%30.09 "Hg10 mi
12:35 pm76 °FScattered clouds.No wind85%30.09 "Hg10 mi
12:15 pm75 °FBroken clouds.No wind86%30.09 "Hg10 mi
11:55 am75 °FBroken clouds.3 mph88%30.10 "Hg10 mi
11:35 am73 °FLight rain. Overcast.No wind95%30.11 "Hg10 mi
11:15 am73 °FOvercast.3 mph89%30.10 "Hg10 mi
10:55 am73 °FMostly cloudy.5 mph90%30.10 "Hg10 mi
10:35 am74 °FLight rain. Cloudy.5 mph85%30.10 "Hg10 mi
10:15 am74 °FThundershowers. Broken clouds.No wind89%30.10 "Hg10 mi
9:55 am74 °FThunderstorms. Scattered clouds.3 mph90%30.09 "Hg10 mi
9:35 am73 °FThundershowers. Scattered clouds.No wind90%30.09 "Hg10 mi
9:15 am72 °FThundershowers. Scattered clouds.No wind94%30.09 "Hg10 mi
8:15 am68 °FFog.No wind100%30.09 "Hg5 mi
7:55 am68 °FFog.No wind100%30.08 "Hg4 mi
7:35 am67 °FFog.No wind100%30.08 "Hg5 mi
7:15 am66 °FPartly sunny.No wind100%30.08 "Hg7 mi
6:55 am67 °FMostly cloudy.No wind100%30.07 "Hg7 mi
6:35 am67 °FMostly cloudy.No wind100%30.07 "Hg7 mi
6:15 am67 °FPartly cloudy.No wind100%30.07 "Hg7 mi
Weather by CustomWeather, © 2020

See weather overview